Time,TemperatureF,DewpointF,PressureIn,WindDirection,WindDirectionDegrees,WindSpeedMPH,WindSpeedGustMPH,Humidity,HourlyPrecipIn,Conditions,Clouds,dailyrainin,SoftwareType,DateUTC
2013-06-29 00:00:00,55.9,50.2,30.13,WNW,283,9.0,17.0,81,0.00,RA,RA,0.00,WeatherDisplay:10.37,2013-06-28 23:00:00,
2013-06-29 00:10:00,55.9,50.2,30.13,West,273,10.0,18.0,81,0.00,CLR,CLR,0.00,WeatherDisplay:10.37,2013-06-28 23:10:00,
2013-06-29 00:20:00,55.9,50.2,30.12,WNW,291,12.0,17.0,81,0.00,CLR,CLR,0.00,WeatherDisplay:10.37,2013-06-28 23:20:00,
2013-06-29 00:30:00,56.1,50.0,30.12,WNW,285,9.0,17.0,80,0.00,CLR,CLR,0.00,WeatherDisplay:10.37,2013-06-28 23:30:00,
2013-06-29 00:40:00,56.1,50.4,30.12,West,271,12.0,17.0,81,0.00,CLR,CLR,0.00,WeatherDisplay:10.37,2013-06-28 23:40:00,
2013-06-29 00:50:00,56.1,50.0,30.13,WNW,299,9.0,17.0,80,0.00,CLR,CLR,0.00,WeatherDisplay:10.37,2013-06-28 23:50:00,
2013-06-29 01:00:00,56.1,49.7,30.13,West,280,13.0,17.0,79,0.00,CLR,CLR,0.00,WeatherDisplay:10.37,2013-06-29 00:00:00,
2013-06-29 01:10:00,56.1,49.7,30.13,West,273,12.0,18.0,79,0.00,CLR,CLR,0.00,WeatherDisplay:10.37,2013-06-29 00:10:00,
2013-06-29 01:20:00,56.1,50.0,30.13,West,280,12.0,20.0,80,0.00,CLR,CLR,0.00,WeatherDisplay:10.37,2013-06-29 00:20:00,
2013-06-29 01:30:00,56.1,50.0,30.12,WNW,283,13.0,18.0,80,0.00,CLR,CLR,0.00,WeatherDisplay:10.37,2013-06-29 00:30:00,
2013-06-29 01:40:00,56.1,50.4,30.12,West,278,12.0,20.0,81,0.00,CLR,CLR,0.00,WeatherDisplay:10.37,2013-06-29 00:40:00,
2013-06-29 01:50:00,56.1,50.7,30.12,WNW,291,14.0,21.0,82,0.00,CLR,CLR,0.00,WeatherDisplay:10.37,2013-06-29 00:50:00,
2013-06-29 02:00:00,55.9,50.5,30.12,WNW,282,13.0,21.0,82,0.00,CLR,CLR,0.00,WeatherDisplay:10.37,2013-06-29 01:00:00,
2013-06-29 02:10:00,55.9,50.5,30.12,WNW,299,14.0,20.0,82,0.00,CLR,CLR,0.00,WeatherDisplay:10.37,2013-06-29 01:10:00,
2013-06-29 02:20:00,55.9,50.9,30.11,West,279,14.0,21.0,83,0.00,CLR,CLR,0.00,WeatherDisplay:10.37,2013-06-29 01:20:00,
2013-06-29 02:30:00,55.8,50.4,30.12,West,267,13.0,20.0,82,0.00,CLR,CLR,0.00,WeatherDisplay:10.37,2013-06-29 01:30:00,
2013-06-29 02:40:00,55.9,50.9,30.12,West,281,12.0,21.0,83,0.00,CLR,CLR,0.00,WeatherDisplay:10.37,2013-06-29 01:40:00,
2013-06-29 02:50:00,56.1,51.0,30.11,West,270,10.0,17.0,83,0.00,CLR,CLR,0.00,WeatherDisplay:10.37,2013-06-29 01:50:00,
2013-06-29 03:00:00,56.3,51.2,30.11,West,281,7.0,15.0,83,0.00,CLR,CLR,0.00,WeatherDisplay:10.37,2013-06-29 02:00:00,
2013-06-29 03:10:00,56.3,51.2,30.11,West,271,9.0,17.0,83,0.00,CLR,CLR,0.00,WeatherDisplay:10.37,2013-06-29 02:10:00,
2013-06-29 03:20:00,56.3,51.2,30.11,West,268,12.0,16.0,83,0.00,CLR,CLR,0.00,WeatherDisplay:10.37,2013-06-29 02:20:00,
2013-06-29 03:30:00,56.3,51.2,30.11,WNW,286,12.0,18.0,83,0.00,CLR,CLR,0.00,WeatherDisplay:10.37,2013-06-29 02:30:00,
2013-06-29 03:40:00,56.2,51.4,30.10,West,279,12.0,18.0,84,0.00,CLR,CLR,0.00,WeatherDisplay:10.37,2013-06-29 02:40:00,
2013-06-29 03:50:00,56.3,51.5,30.10,West,278,14.0,21.0,84,0.00,CLR,CLR,0.00,WeatherDisplay:10.37,2013-06-29 02:50:00,
2013-06-29 04:00:00,56.3,51.5,30.10,West,281,12.0,21.0,84,0.00,CLR,CLR,0.00,WeatherDisplay:10.37,2013-06-29 03:00:00,
2013-06-29 04:10:00,56.5,52.0,30.10,West,270,14.0,18.0,85,0.00,CLR,CLR,0.00,WeatherDisplay:10.37,2013-06-29 03:10:00,
2013-06-29 04:20:00,56.5,52.0,30.10,WNW,287,10.0,18.0,85,0.00,CLR,CLR,0.00,WeatherDisplay:10.37,2013-06-29 03:20:00,
2013-06-29 04:30:00,56.5,52.4,30.10,West,272,14.0,20.0,86,0.00,CLR,CLR,0.00,WeatherDisplay:10.37,2013-06-29 03:30:00,
2013-06-29 04:40:00,56.5,52.3,30.10,West,268,10.0,17.0,86,0.00,CLR,CLR,0.00,WeatherDisplay:10.37,2013-06-29 03:40:00,
2013-06-29 04:50:00,55.9,52.4,30.10,West,262,10.0,17.0,88,0.00,CLR,CLR,0.00,WeatherDisplay:10.37,2013-06-29 03:50:00,
2013-06-29 05:00:00,55.8,52.6,30.09,West,269,10.0,23.0,89,0.00,CLR,CLR,0.00,WeatherDisplay:10.37,2013-06-29 04:00:00,
2013-06-29 05:10:00,55.9,53.0,30.10,West,274,12.0,17.0,90,0.00,CLR,CLR,0.00,WeatherDisplay:10.37,2013-06-29 04:10:00,
2013-06-29 05:20:00,55.9,53.4,30.09,West,273,10.0,17.0,91,0.00,CLR,CLR,0.00,WeatherDisplay:10.37,2013-06-29 04:20:00,
2013-06-29 05:30:00,56.1,53.5,30.09,West,280,10.0,17.0,91,0.00,CLR,CLR,0.00,WeatherDisplay:10.37,2013-06-29 04:30:00,
2013-06-29 05:40:00,56.3,53.7,30.10,West,273,9.0,15.0,91,0.00,CLR,CLR,0.00,WeatherDisplay:10.37,2013-06-29 04:40:00,
2013-06-29 05:50:00,56.5,54.2,30.10,WNW,289,14.0,21.0,92,0.00,CLR,CLR,0.00,WeatherDisplay:10.37,2013-06-29 04:50:00,
2013-06-29 06:00:00,56.7,54.4,30.10,WSW,257,13.0,21.0,92,0.00,CLR,CLR,0.00,WeatherDisplay:10.37,2013-06-29 05:00:00,
2013-06-29 06:10:00,56.7,54.4,30.10,WNW,295,15.0,21.0,92,0.00,CLR,CLR,0.00,WeatherDisplay:10.37,2013-06-29 05:10:00,
2013-06-29 06:20:00,56.8,54.5,30.10,WNW,294,10.0,21.0,92,0.00,CLR,CLR,0.00,WeatherDisplay:10.37,2013-06-29 05:20:00,
2013-06-29 06:30:00,56.8,54.5,30.10,West,278,14.0,21.0,92,0.01,RA,RA,0.01,WeatherDisplay:10.37,2013-06-29 05:30:00,
2013-06-29 06:40:00,57.0,55.0,30.10,WNW,288,16.0,23.0,93,0.00,CLR,CLR,0.01,WeatherDisplay:10.37,2013-06-29 05:40:00,
2013-06-29 06:50:00,57.0,55.0,30.09,West,277,18.0,26.0,93,0.00,CLR,CLR,0.01,WeatherDisplay:10.37,2013-06-29 05:50:00,
2013-06-29 07:00:00,57.2,54.9,30.09,West,274,18.0,24.0,92,0.00,CLR,CLR,0.01,WeatherDisplay:10.37,2013-06-29 06:00:00,
2013-06-29 07:10:00,57.2,54.9,30.10,West,280,20.0,25.0,92,0.00,CLR,CLR,0.01,WeatherDisplay:10.37,2013-06-29 06:10:00,
2013-06-29 07:20:00,57.2,54.9,30.10,West,269,18.0,27.0,92,0.00,CLR,CLR,0.01,WeatherDisplay:10.37,2013-06-29 06:20:00,
2013-06-29 07:30:00,57.2,54.9,30.10,West,281,17.0,28.0,92,0.00,CLR,CLR,0.01,WeatherDisplay:10.37,2013-06-29 06:30:00,
2013-06-29 07:40:00,57.2,54.9,30.10,West,276,18.0,27.0,92,0.00,CLR,CLR,0.01,WeatherDisplay:10.37,2013-06-29 06:40:00,
2013-06-29 07:50:00,57.3,55.0,30.10,West,264,14.0,29.0,92,0.00,CLR,CLR,0.01,WeatherDisplay:10.37,2013-06-29 06:50:00,
2013-06-29 08:00:00,57.4,55.1,30.11,WNW,297,17.0,27.0,92,0.00,CLR,CLR,0.01,WeatherDisplay:10.37,2013-06-29 07:00:00,
2013-06-29 08:10:00,57.2,54.9,30.11,WNW,290,14.0,29.0,92,0.00,CLR,CLR,0.01,WeatherDisplay:10.37,2013-06-29 07:10:00,
2013-06-29 08:20:00,57.2,54.9,30.11,WNW,296,15.0,26.0,92,0.00,CLR,CLR,0.01,WeatherDisplay:10.37,2013-06-29 07:20:00,
2013-06-29 08:30:00,57.2,54.9,30.11,West,275,17.0,28.0,92,0.00,CLR,CLR,0.01,WeatherDisplay:10.37,2013-06-29 07:30:00,
2013-06-29 08:40:00,57.2,54.9,30.11,West,269,20.0,28.0,92,0.00,CLR,CLR,0.01,WeatherDisplay:10.37,2013-06-29 07:40:00,
2013-06-29 08:50:00,57.2,54.9,30.11,WNW,285,18.0,29.0,92,0.01,RA,RA,0.02,WeatherDisplay:10.37,2013-06-29 07:50:00,
2013-06-29 09:00:00,57.4,55.1,30.11,West,278,16.0,23.0,92,0.00,CLR,CLR,0.02,WeatherDisplay:10.37,2013-06-29 08:00:00,
2013-06-29 09:10:00,57.6,55.3,30.12,WNW,295,17.0,23.0,92,0.00,CLR,CLR,0.02,WeatherDisplay:10.37,2013-06-29 08:10:00,
2013-06-29 09:20:00,57.4,55.1,30.12,WNW,293,16.0,23.0,92,0.00,CLR,CLR,0.02,WeatherDisplay:10.37,2013-06-29 08:20:00,
2013-06-29 09:30:00,57.6,55.3,30.12,West,276,18.0,28.0,92,0.00,CLR,CLR,0.02,WeatherDisplay:10.37,2013-06-29 08:30:00,
2013-06-29 09:40:00,57.6,55.0,30.12,West,277,17.0,29.0,91,0.00,CLR,CLR,0.02,WeatherDisplay:10.37,2013-06-29 08:40:00,
2013-06-29 09:50:00,57.6,55.0,30.12,West,277,17.0,29.0,91,0.00,CLR,CLR,0.02,WeatherDisplay:10.37,2013-06-29 08:50:00,
2013-06-29 10:00:00,57.6,55.0,30.13,West,278,17.0,27.0,91,0.00,CLR,CLR,0.02,WeatherDisplay:10.37,2013-06-29 09:00:00,
2013-06-29 10:10:00,57.5,54.9,30.13,West,261,15.0,22.0,91,0.00,CLR,CLR,0.02,WeatherDisplay:10.37,2013-06-29 09:10:00,
2013-06-29 10:20:00,57.6,55.3,30.13,West,274,14.0,21.0,92,0.00,CLR,CLR,0.02,WeatherDisplay:10.37,2013-06-29 09:20:00,
2013-06-29 10:30:00,57.6,55.3,30.13,West,262,20.0,24.0,92,0.00,CLR,CLR,0.02,WeatherDisplay:10.37,2013-06-29 09:30:00,
2013-06-29 10:40:00,57.7,55.4,30.12,West,261,17.0,24.0,92,0.00,CLR,CLR,0.02,WeatherDisplay:10.37,2013-06-29 09:40:00,
2013-06-29 10:50:00,57.8,55.5,30.12,West,279,17.0,29.0,92,0.00,CLR,CLR,0.02,WeatherDisplay:10.37,2013-06-29 09:50:00,
2013-06-29 11:00:00,58.1,55.8,30.12,West,272,23.0,29.0,92,0.00,CLR,CLR,0.02,WeatherDisplay:10.37,2013-06-29 10:00:00,
2013-06-29 11:10:00,58.0,55.7,30.13,West,262,16.0,29.0,92,0.00,CLR,CLR,0.02,WeatherDisplay:10.37,2013-06-29 10:10:00,
2013-06-29 11:20:00,58.1,55.8,30.12,West,278,20.0,29.0,92,0.00,CLR,CLR,0.02,WeatherDisplay:10.37,2013-06-29 10:20:00,
2013-06-29 11:30:00,58.1,55.8,30.13,West,272,21.0,28.0,92,0.00,CLR,CLR,0.02,WeatherDisplay:10.37,2013-06-29 10:30:00,
2013-06-29 11:40:00,58.2,55.9,30.13,WNW,285,15.0,26.0,92,0.00,CLR,CLR,0.02,WeatherDisplay:10.37,2013-06-29 10:40:00,
2013-06-29 11:50:00,58.4,55.8,30.13,WNW,296,15.0,25.0,91,0.00,CLR,CLR,0.02,WeatherDisplay:10.37,2013-06-29 10:50:00,
2013-06-29 12:00:00,58.5,55.8,30.14,West,281,14.0,21.0,91,0.00,CLR,CLR,0.02,WeatherDisplay:10.37,2013-06-29 11:00:00,
2013-06-29 12:10:00,58.5,55.8,30.14,West,277,17.0,23.0,91,0.00,CLR,CLR,0.02,WeatherDisplay:10.37,2013-06-29 11:10:00,
2013-06-29 12:20:00,58.5,55.8,30.14,West,263,15.0,23.0,91,0.00,CLR,CLR,0.02,WeatherDisplay:10.37,2013-06-29 11:20:00,
2013-06-29 12:30:00,58.8,56.2,30.14,West,268,20.0,24.0,91,0.00,CLR,CLR,0.02,WeatherDisplay:10.37,2013-06-29 11:30:00,
2013-06-29 12:40:00,59.2,55.9,30.15,West,262,17.0,23.0,89,0.00,CLR,CLR,0.02,WeatherDisplay:10.37,2013-06-29 11:40:00,
2013-06-29 12:50:00,59.5,55.9,30.15,West,262,13.0,21.0,88,0.00,CLR,CLR,0.02,WeatherDisplay:10.37,2013-06-29 11:50:00,
2013-06-29 13:00:00,59.7,55.8,30.15,West,277,15.0,21.0,87,0.00,CLR,CLR,0.02,WeatherDisplay:10.37,2013-06-29 12:00:00,
2013-06-29 13:10:00,60.1,55.9,30.15,West,267,13.0,21.0,86,0.00,CLR,CLR,0.02,WeatherDisplay:10.37,2013-06-29 12:10:00,
2013-06-29 13:20:00,60.1,55.9,30.15,West,265,16.0,23.0,86,0.00,CLR,CLR,0.02,WeatherDisplay:10.37,2013-06-29 12:20:00,
2013-06-29 13:30:00,60.4,55.9,30.15,WSW,241,16.0,24.0,85,0.00,CLR,CLR,0.02,WeatherDisplay:10.37,2013-06-29 12:30:00,
2013-06-29 13:40:00,61.0,56.1,30.15,West,271,17.0,23.0,84,0.00,CLR,CLR,0.02,WeatherDisplay:10.37,2013-06-29 12:40:00,
2013-06-29 13:50:00,60.8,55.6,30.15,WSW,249,16.0,29.0,83,0.00,CLR,CLR,0.02,WeatherDisplay:10.37,2013-06-29 12:50:00,
2013-06-29 14:00:00,60.6,55.8,30.15,WSW,245,18.0,28.0,84,0.00,CLR,CLR,0.02,WeatherDisplay:10.37,2013-06-29 13:00:00,
2013-06-29 14:10:00,60.8,55.6,30.14,WSW,249,14.0,26.0,83,0.00,CLR,CLR,0.02,WeatherDisplay:10.37,2013-06-29 13:10:00,
2013-06-29 14:20:00,61.7,56.5,30.15,West,261,15.0,24.0,83,0.00,CLR,CLR,0.02,WeatherDisplay:10.37,2013-06-29 13:20:00,
2013-06-29 14:30:00,61.9,56.7,30.15,West,262,14.0,26.0,83,0.00,CLR,CLR,0.02,WeatherDisplay:10.37,2013-06-29 13:30:00,
2013-06-29 14:40:00,61.4,56.2,30.15,WSW,237,15.0,26.0,83,0.00,CLR,CLR,0.02,WeatherDisplay:10.37,2013-06-29 13:40:00,
2013-06-29 14:50:00,61.5,56.3,30.15,West,261,20.0,26.0,83,0.00,CLR,CLR,0.02,WeatherDisplay:10.37,2013-06-29 13:50:00,
2013-06-29 15:00:00,61.3,56.1,30.15,WSW,246,20.0,28.0,83,0.00,CLR,CLR,0.02,WeatherDisplay:10.37,2013-06-29 14:00:00,
2013-06-29 15:10:00,61.3,56.1,30.15,WSW,246,17.0,29.0,83,0.00,CLR,CLR,0.02,WeatherDisplay:10.37,2013-06-29 14:10:00,
2013-06-29 15:20:00,61.0,55.8,30.15,SW,236,21.0,30.0,83,0.00,CLR,CLR,0.02,WeatherDisplay:10.37,2013-06-29 14:20:00,
2013-06-29 15:30:00,60.6,55.8,30.15,West,272,21.0,30.0,84,0.00,CLR,CLR,0.02,WeatherDisplay:10.37,2013-06-29 14:30:00,
2013-06-29 15:40:00,61.0,55.8,30.15,WSW,248,18.0,28.0,83,0.00,CLR,CLR,0.02,WeatherDisplay:10.37,2013-06-29 14:40:00,
2013-06-29 15:50:00,61.2,55.6,30.15,NW,304,21.0,27.0,82,0.00,CLR,CLR,0.02,WeatherDisplay:10.37,2013-06-29 14:50:00,
2013-06-29 16:00:00,61.7,56.1,30.15,WSW,246,17.0,26.0,82,0.00,CLR,CLR,0.02,WeatherDisplay:10.37,2013-06-29 15:00:00,
2013-06-29 16:10:00,60.8,55.6,30.16,SW,235,16.0,25.0,83,0.00,CLR,CLR,0.02,WeatherDisplay:10.37,2013-06-29 15:10:00,
2013-06-29 16:20:00,61.3,56.1,30.15,WSW,241,18.0,26.0,83,0.00,CLR,CLR,0.02,WeatherDisplay:10.37,2013-06-29 15:20:00,
2013-06-29 16:30:00,60.8,55.6,30.16,West,277,17.0,26.0,83,0.00,CLR,CLR,0.02,WeatherDisplay:10.37,2013-06-29 15:30:00,
2013-06-29 16:40:00,60.6,55.8,30.16,WNW,285,20.0,29.0,84,0.00,CLR,CLR,0.02,WeatherDisplay:10.37,2013-06-29 15:40:00,
2013-06-29 16:50:00,60.4,55.6,30.16,West,268,22.0,29.0,84,0.00,CLR,CLR,0.02,WeatherDisplay:10.37,2013-06-29 15:50:00,
2013-06-29 17:00:00,61.0,55.4,30.16,West,260,18.0,29.0,82,0.00,CLR,CLR,0.02,WeatherDisplay:10.37,2013-06-29 16:00:00,
2013-06-29 17:10:00,60.9,55.4,30.16,WSW,256,20.0,28.0,82,0.00,CLR,CLR,0.02,WeatherDisplay:10.37,2013-06-29 16:10:00,
2013-06-29 17:20:00,60.4,55.6,30.16,West,273,16.0,26.0,84,0.00,CLR,CLR,0.02,WeatherDisplay:10.37,2013-06-29 16:20:00,
2013-06-29 17:30:00,60.1,55.2,30.16,WSW,244,17.0,24.0,84,0.00,CLR,CLR,0.02,WeatherDisplay:10.37,2013-06-29 16:30:00,
2013-06-29 17:40:00,59.9,55.3,30.17,WSW,256,16.0,23.0,85,0.00,CLR,CLR,0.02,WeatherDisplay:10.37,2013-06-29 16:40:00,
2013-06-29 17:50:00,60.4,55.9,30.16,West,279,22.0,27.0,85,0.00,CLR,CLR,0.02,WeatherDisplay:10.37,2013-06-29 16:50:00,
2013-06-29 18:00:00,60.1,55.2,30.16,West,281,22.0,29.0,84,0.00,CLR,CLR,0.02,WeatherDisplay:10.37,2013-06-29 17:00:00,
2013-06-29 18:10:00,60.1,55.6,30.17,West,281,14.0,29.0,85,0.00,CLR,CLR,0.02,WeatherDisplay:10.37,2013-06-29 17:10:00,
2013-06-29 18:20:00,60.1,55.2,30.17,West,265,17.0,25.0,84,0.00,CLR,CLR,0.02,WeatherDisplay:10.37,2013-06-29 17:20:00,
2013-06-29 18:30:00,60.1,55.6,30.17,WNW,288,15.0,24.0,85,0.00,CLR,CLR,0.02,WeatherDisplay:10.37,2013-06-29 17:30:00,
2013-06-29 18:40:00,59.9,55.4,30.17,West,276,15.0,21.0,85,0.00,CLR,CLR,0.02,WeatherDisplay:10.37,2013-06-29 17:40:00,
2013-06-29 18:50:00,59.9,55.4,30.17,West,266,15.0,22.0,85,0.00,CLR,CLR,0.02,WeatherDisplay:10.37,2013-06-29 17:50:00,
2013-06-29 19:00:00,59.9,55.7,30.17,WSW,253,14.0,23.0,86,0.00,CLR,CLR,0.02,WeatherDisplay:10.37,2013-06-29 18:00:00,
2013-06-29 19:10:00,59.7,55.5,30.17,West,264,13.0,21.0,86,0.00,CLR,CLR,0.02,WeatherDisplay:10.37,2013-06-29 18:10:00,
2013-06-29 19:20:00,59.7,55.5,30.16,SW,234,15.0,21.0,86,0.00,CLR,CLR,0.02,WeatherDisplay:10.37,2013-06-29 18:20:00,
2013-06-29 19:30:00,59.9,55.7,30.16,West,273,14.0,30.0,86,0.00,CLR,CLR,0.02,WeatherDisplay:10.37,2013-06-29 18:30:00,
2013-06-29 19:40:00,59.7,55.2,30.16,West,281,17.0,28.0,85,0.00,CLR,CLR,0.02,WeatherDisplay:10.37,2013-06-29 18:40:00,
2013-06-29 19:50:00,59.7,55.5,30.16,West,260,14.0,26.0,86,0.00,CLR,CLR,0.02,WeatherDisplay:10.37,2013-06-29 18:50:00,
2013-06-29 20:00:00,59.7,55.5,30.16,West,274,20.0,27.0,86,0.00,CLR,CLR,0.02,WeatherDisplay:10.37,2013-06-29 19:00:00,
2013-06-29 20:10:00,59.5,55.3,30.16,West,278,15.0,29.0,86,0.00,CLR,CLR,0.02,WeatherDisplay:10.37,2013-06-29 19:10:00,
2013-06-29 20:20:00,59.4,55.2,30.16,West,271,18.0,27.0,86,0.00,CLR,CLR,0.02,WeatherDisplay:10.37,2013-06-29 19:20:00,
2013-06-29 20:30:00,59.4,55.5,30.16,West,272,16.0,26.0,87,0.00,CLR,CLR,0.02,WeatherDisplay:10.37,2013-06-29 19:30:00,
2013-06-29 20:40:00,59.5,55.7,30.16,West,271,16.0,23.0,87,0.00,CLR,CLR,0.02,WeatherDisplay:10.37,2013-06-29 19:40:00,
2013-06-29 20:50:00,59.4,55.5,30.16,WSW,257,14.0,25.0,87,0.00,CLR,CLR,0.02,WeatherDisplay:10.37,2013-06-29 19:50:00,
2013-06-29 21:00:00,59.2,55.0,30.16,WSW,252,18.0,25.0,86,0.00,CLR,CLR,0.02,WeatherDisplay:10.37,2013-06-29 20:00:00,
2013-06-29 21:10:00,59.3,55.4,30.15,WSW,253,15.0,23.0,87,0.00,CLR,CLR,0.02,WeatherDisplay:10.37,2013-06-29 20:10:00,
2013-06-29 21:20:00,59.2,55.3,30.15,WSW,243,13.0,23.0,87,0.00,CLR,CLR,0.02,WeatherDisplay:10.37,2013-06-29 20:20:00,
2013-06-29 21:30:00,59.1,55.3,30.15,West,270,10.0,24.0,87,0.00,CLR,CLR,0.02,WeatherDisplay:10.37,2013-06-29 20:30:00,
2013-06-29 21:40:00,59.2,55.0,30.15,WSW,257,16.0,25.0,86,0.00,CLR,CLR,0.02,WeatherDisplay:10.37,2013-06-29 20:40:00,
2013-06-29 21:50:00,59.1,54.9,30.15,West,277,20.0,28.0,86,0.00,CLR,CLR,0.02,WeatherDisplay:10.37,2013-06-29 20:50:00,
2013-06-29 22:00:00,59.0,54.8,30.15,SW,232,18.0,29.0,86,0.00,CLR,CLR,0.02,WeatherDisplay:10.37,2013-06-29 21:00:00,
2013-06-29 22:10:00,59.0,54.8,30.15,West,278,21.0,29.0,86,0.00,CLR,CLR,0.02,WeatherDisplay:10.37,2013-06-29 21:10:00,
2013-06-29 22:20:00,59.0,54.8,30.15,WSW,242,21.0,34.0,86,0.00,CLR,CLR,0.02,WeatherDisplay:10.37,2013-06-29 21:20:00,
2013-06-29 22:30:00,58.8,55.0,30.15,WSW,243,20.0,33.0,87,0.00,CLR,CLR,0.02,WeatherDisplay:10.37,2013-06-29 21:30:00,
2013-06-29 22:40:00,58.7,54.9,30.15,WSW,247,20.0,31.0,87,0.00,CLR,CLR,0.02,WeatherDisplay:10.37,2013-06-29 21:40:00,
2013-06-29 22:50:00,58.6,54.8,30.15,WSW,245,18.0,29.0,87,0.00,CLR,CLR,0.02,WeatherDisplay:10.37,2013-06-29 21:50:00,
2013-06-29 23:00:00,58.8,54.6,30.15,SW,228,24.0,28.0,86,0.00,CLR,CLR,0.02,WeatherDisplay:10.37,2013-06-29 22:00:00,
2013-06-29 23:10:00,58.6,54.5,30.14,SW,227,17.0,28.0,86,0.00,CLR,CLR,0.02,WeatherDisplay:10.37,2013-06-29 22:10:00,
2013-06-29 23:20:00,58.0,53.8,30.15,WSW,244,17.0,29.0,86,0.00,CLR,CLR,0.02,WeatherDisplay:10.37,2013-06-29 22:20:00,
2013-06-29 23:30:00,57.7,54.2,30.15,WSW,237,17.0,30.0,88,0.00,CLR,CLR,0.02,WeatherDisplay:10.37,2013-06-29 22:30:00,
2013-06-29 23:40:00,58.1,54.2,30.14,WSW,244,16.0,24.0,87,0.00,CLR,CLR,0.02,WeatherDisplay:10.37,2013-06-29 22:40:00,
2013-06-29 23:50:00,58.4,54.6,30.14,SW,226,18.0,28.0,87,0.00,CLR,CLR,0.02,WeatherDisplay:10.37,2013-06-29 22:50:00,